Amateur Radio Satellites - All Passes

Search period start: 21 May 2013 21:41
Search period end: 22 May 2013 21:41
Location: Fredericksburg, 30.2750°N, 98.8720°W

Satellite Date Start Highest point End Downlink Frequencies (MHz)
Time Altitude Azimuth
UOSAT-12 21 May 21:52:23 21:56:55 59° 61° (ENE) 22:01:27 437.025 FM, 437.400 FM
HO-68 21 May 22:11:52 22:18:57 74° 73° (ENE) 22:26:04 435.675 MHz FM
OPAL 21 May 22:26:21 22:30:41 27° 68° (ENE) 22:35:00 ?
KITSAT 1 21 May 22:40:13 22:46:49 29° 105° (ESE) 22:53:25 435.175 FM
JAS-1B 21 May 22:51:02 22:54:21 12° 267° (W) 22:57:33 435.800 - 435.900 CW/SSB
Oscar 11 21 May 22:56:37 23:00:54 71° 259° (WSW) 23:05:13 145.825 FM, Beacon 2401.500 USB
JAS-2 21 May 23:05:41 23:13:07 65° 259° (W) 23:20:57 435.800 - 435.900 CW/SSB, 435.910 FM
UOSAT-12 21 May 23:36:08 23:36:32 10° 253° (WSW) 23:36:57 437.025 FM, 437.400 FM
RS-15 22 May 00:02:29 00:04:57 11° 26° (NNE) 00:07:23 29.354 - 29.394 USB, Beacon 29.352 USB
HO-68 22 May 00:03:22 00:07:06 15° 266° (W) 00:10:51 435.675 MHz FM
OPAL 22 May 00:05:01 00:09:25 28° 261° (W) 00:13:49 ?
KITSAT 1 22 May 00:34:02 00:41:45 50° 300° (WNW) 00:49:34 435.175 FM
AO-40 22 May 01:18:56 02:58:37 54° 214° (SW) 09:03:50 Beacon 2401.320
MaSat-1 22 May 01:31:52 01:37:50 27° 105° (ESE) 01:43:12 437.345 MHz
RS-15 22 May 02:10:47 02:21:15 46° 55° (NE) 02:31:29 29.354 - 29.394 USB, Beacon 29.352 USB
Oscar 16 22 May 02:37:39 02:42:09 30° 98° (E) 02:46:37 437.025 USB, Beacon 2401.1428
AO-27 22 May 02:44:43 02:48:58 25° 97° (E) 02:53:12 436.795 MHz FM
ITAMSAT 1 22 May 02:51:24 02:55:53 29° 98° (E) 03:00:21 435.822 SSB
ISS 22 May 03:02:26 03:05:43 78° 133° (SE) 03:09:01 145.800 FM
MaSat-1 22 May 03:12:50 03:19:51 48° 293° (WNW) 03:25:52 437.345 MHz
Uribyol 2 22 May 03:32:03 03:37:18 83° 103° (ESE) 03:42:32 436.500 FM
Oscar 19 22 May 03:37:09 03:42:18 74° 284° (WNW) 03:47:24 437.125 CW, 437.150 USB
Uosat F 22 May 03:43:51 03:44:10 10° 93° (E) 03:44:29 435.120 FM
AO-Echo 22 May 03:47:54 03:52:13 33° 99° (E) 03:56:37 ?
Oscar 16 22 May 04:17:13 04:21:19 24° 290° (WNW) 04:25:23 437.025 USB, Beacon 2401.1428
RS-15 22 May 04:23:24 04:33:19 42° 253° (WSW) 04:43:11 29.354 - 29.394 USB, Beacon 29.352 USB
TMSAT-1 22 May 04:23:24 04:26:37 16° 94° (E) 04:29:48 436.925 FM
AO-27 22 May 04:23:55 04:28:23 30° 289° (WNW) 04:32:52 436.795 MHz FM
ITAMSAT 1 22 May 04:30:58 04:35:13 26° 290° (WNW) 04:39:29 435.822 SSB
ISS 22 May 04:42:39 04:42:47 10° 328° (NNW) 04:42:56 145.800 FM
Gurwin Techsat 1B 22 May 04:43:11 04:48:12 42° 99° (E) 04:53:12 435.225 FM
AO-7 22 May 05:15:36 05:21:30 21° 96° (E) 05:27:21 29.400 - 29.500 MHz
Uosat F 22 May 05:18:18 05:23:16 64° 285° (WNW) 05:28:14 435.120 FM
AO-Echo 22 May 05:27:27 05:30:45 19° 290° (WNW) 05:34:06 ?
Saudisat 1A 22 May 05:53:41 05:57:53 40° 113° (ESE) 06:02:10 436.775 MHz
TMSAT-1 22 May 06:01:38 06:06:41 46° 287° (WNW) 06:11:43 436.925 FM
Gurwin Techsat 1B 22 May 06:24:15 06:27:48 19° 292° (WNW) 06:31:21 435.225 FM
PCSat 22 May 07:00:10 07:03:46 18° 105° (ESE) 07:07:23 145.825 MHz
AO-7 22 May 07:06:24 07:14:40 67° 290° (WNW) 07:22:54 29.400 - 29.500 MHz
STRAND 1 22 May 07:16:09 07:21:14 82° 76° (ENE) 07:26:20 ?
Sapphire 22 May 07:31:36 07:36:30 37° 109° (ESE) 07:41:25 437.095 MHz 1200 baud AX-25 AFSK
Saudisat 1A 22 May 07:34:41 07:37:43 17° 307° (NW) 07:40:47 436.775 MHz
Oscar 10/S400 22 May 08:08:53 10:36:30 42° 269° (W) 18:25:56 145.825 - 145.975 CW/USB, Beacon 145.810 USB
SO-67 22 May 08:24:40 08:26:42 14° 95° (E) 08:28:43 435.3500 MHz FM
KITSAT 1 22 May 08:33:53 08:40:56 32° 55° (NE) 08:47:56 435.175 FM
PCSat 22 May 08:41:40 08:46:47 43° 298° (WNW) 08:51:56 145.825 MHz
JAS-1B 22 May 08:48:08 08:53:30 37° 98° (E) 08:58:41 435.800 - 435.900 CW/SSB
SO-50 22 May 08:53:40 08:58:14 44° 113° (ESE) 09:02:46 436.795 FM
Hamsat 22 May 08:53:51 08:58:07 55° 284° (WNW) 09:02:24 145.90 MHz
AO-7 22 May 09:04:36 09:05:53 10° 307° (NW) 09:07:11 29.400 - 29.500 MHz
Sapphire 22 May 09:15:42 09:19:57 23° 303° (WNW) 09:24:14 437.095 MHz 1200 baud AX-25 AFSK
HO-68 22 May 09:47:47 09:52:27 18° 95° (E) 09:57:05 435.675 MHz FM
SO-67 22 May 09:57:16 10:00:05 22° 287° (WNW) 10:02:53 435.3500 MHz FM
JAS-2 22 May 10:24:20 10:29:34 25° 93° (E) 10:34:19 435.800 - 435.900 CW/SSB, 435.910 FM
KITSAT 1 22 May 10:28:45 10:36:28 49° 251° (WSW) 10:44:09 435.175 FM
PANSAT 22 May 10:32:48 10:34:05 11° 154° (SSE) 10:35:22 not established
SO-50 22 May 10:35:53 10:39:02 17° 307° (NW) 10:42:10 436.795 FM
JAS-1B 22 May 10:39:40 10:43:52 21° 294° (WNW) 10:47:56 435.800 - 435.900 CW/SSB
OPAL 22 May 10:44:56 10:45:50 10° 95° (E) 10:46:45 ?
Oscar 11 22 May 10:50:39 10:54:35 32° 98° (E) 10:58:29 145.825 FM, Beacon 2401.500 USB
ISS 22 May 11:12:09 11:15:30 71° 45° (NE) 11:18:51 145.800 FM
HO-68 22 May 11:33:24 11:40:27 64° 288° (WNW) 11:47:30 435.675 MHz FM
UOSAT-12 22 May 11:58:18 12:02:45 70° 115° (ESE) 12:07:16 437.025 FM, 437.400 FM
MaSat-1 22 May 12:06:14 12:07:41 13° 58° (ENE) 12:09:03 437.345 MHz
JAS-2 22 May 12:08:36 12:14:44 39° 291° (WNW) 12:20:12 435.800 - 435.900 CW/SSB, 435.910 FM
PANSAT 22 May 12:10:25 12:13:59 35° 164° (SSE) 12:17:34 not established
OPAL 22 May 12:20:08 12:25:02 61° 287° (WNW) 12:29:53 ?
Oscar 11 22 May 12:27:47 12:30:30 16° 290° (WNW) 12:33:13 145.825 FM, Beacon 2401.500 USB
UOSAT-12 22 May 13:42:28 13:43:22 11° 311° (NW) 13:44:16 437.025 FM, 437.400 FM
Oscar 16 22 May 13:49:25 13:53:35 25° 70° (ENE) 13:57:46 437.025 USB, Beacon 2401.1428
PANSAT 22 May 13:50:18 13:54:10 65° 176° (S) 13:58:01 not established
AO-27 22 May 13:57:53 14:01:45 22° 69° (ENE) 14:05:37 436.795 MHz FM
ITAMSAT 1 22 May 14:04:20 14:08:27 25° 69° (ENE) 14:12:35 435.822 SSB
Uribyol 2 22 May 14:44:16 14:49:23 69° 75° (ENE) 14:54:33 436.500 FM
Oscar 19 22 May 14:48:08 14:53:19 88° 77° (ENE) 14:58:33 437.125 CW, 437.150 USB
AO-Echo 22 May 14:56:01 14:59:55 24° 71° (ENE) 15:03:45 ?
Oscar 16 22 May 15:28:17 15:32:45 29° 262° (W) 15:37:16 437.025 USB, Beacon 2401.1428
PANSAT 22 May 15:30:37 15:34:26 56° 189° (S) 15:38:14 not established
AO-27 22 May 15:36:21 15:41:00 34° 262° (W) 15:45:41 436.795 MHz FM
TMSAT-1 22 May 15:39:24 15:42:17 15° 66° (ENE) 15:45:10 436.925 FM
ITAMSAT 1 22 May 15:43:18 15:47:46 30° 262° (W) 15:52:15 435.822 SSB
Gurwin Techsat 1B 22 May 15:58:46 16:03:37 38° 72° (ENE) 16:08:29 435.225 FM
Saudisat 1A 22 May 16:05:44 16:10:15 83° 63° (ENE) 16:14:40 436.775 MHz
AO-7 22 May 16:09:51 16:14:57 18° 58° (ENE) 16:20:04 29.400 - 29.500 MHz
RS-15 22 May 16:25:08 16:36:45 54° 109° (ESE) 16:47:57 29.354 - 29.394 USB, Beacon 29.352 USB
Uosat F 22 May 16:25:49 16:30:49 86° 257° (WSW) 16:35:50 435.120 FM
AO-Echo 22 May 16:34:29 16:38:34 26° 262° (W) 16:42:35 ?
PANSAT 22 May 17:11:21 17:14:30 24° 200° (SSW) 17:17:40 not established
TMSAT-1 22 May 17:16:35 17:21:43 52° 260° (W) 17:26:53 436.925 FM
PCSat 22 May 17:35:18 17:40:28 44° 62° (ENE) 17:45:35 145.825 MHz
Gurwin Techsat 1B 22 May 17:39:51 17:43:38 20° 265° (W) 17:47:26 435.225 FM
AO-7 22 May 17:58:28 18:06:45 81° 254° (WSW) 18:15:06 29.400 - 29.500 MHz
Sapphire 22 May 18:08:03 18:13:30 85° 66° (ENE) 18:18:54 437.095 MHz 1200 baud AX-25 AFSK
RS-15 22 May 18:38:19 18:49:21 40° 307° (NW) 19:00:03 29.354 - 29.394 USB, Beacon 29.352 USB
SO-50 22 May 19:11:39 19:16:09 80° 244° (WSW) 19:20:36 436.795 FM
PCSat 22 May 19:19:51 19:23:29 18° 255° (WSW) 19:27:06 145.825 MHz
JAS-1B 22 May 19:25:00 19:32:28 28° 68° (ENE) 19:39:09 435.800 - 435.900 CW/SSB
STRAND 1 22 May 19:32:54 19:37:49 45° 100° (E) 19:42:43 ?
Hamsat 22 May 19:42:14 19:46:16 48° 75° (ENE) 19:50:20 145.90 MHz
AO-7 22 May 19:58:40 20:00:22 11° 267° (W) 20:02:05 29.400 - 29.500 MHz
SO-67 22 May 20:26:47 20:30:13 49° 76° (ENE) 20:33:41 435.3500 MHz FM
UOSAT-12 22 May 20:35:07 20:37:29 14° 51° (NE) 20:39:52 437.025 FM, 437.400 FM
JAS-1B 22 May 21:13:09 21:22:33 59° 258° (WSW) 21:30:48 435.800 - 435.900 CW/SSB
STRAND 1 22 May 21:13:27 21:16:36 17° 293° (WNW) 21:19:44 ?

Developed and maintained by Chris Peat, Heavens-Above GmbH. Please read the updated FAQ before sending e-mail. Imprint. DLR
